Theta_e
323 322 321 322 323 334 327 327 335 339 346 347 348 346 344 345 344 342 341 341 342 342 343 342 342 342 341 341 339 340 340 340 342 343 342 342 343 346 350 351 351 351 350 349
326 324 325 322 323 330 335 336 338 339 344 343 345 343 343 343 341 342 340 339 337 337 339 340 340 341 339 337 337 338 336 337 340 339 340 342 344 346 348 349 350 350 351 353
326 324 326 326 324 325 336 341 342 342 343 343 345 343 343 341 341 340 337 334 335 335 334 337 336 336 334 335 331 334 334 335 337 340 337 339 341 342 342 344 346 347 347 348
323 326 329 325 325 330 335 340 341 341 341 343 342 341 340 341 341 335 332 332 330 327 325 325 326 327 328 331 330 330 329 329 331 335 332 333 335 336 336 337 339 340 341 342
324 322 324 324 323 324 325 325 334 340 341 341 341 339 340 337 331 330 329 328 325 322 321 321 321 321 323 320 319 319 320 320 322 327 326 326 327 330 331 333 334 335 337 339
322 321 321 323 322 323 326 327 336 339 340 341 340 343 333 326 324 323 324 323 321 319 319 319 319 320 318 317 316 316 316 316 316 317 319 319 320 322 324 326 328 332 335 335
321 321 320 321 324 323 327 327 334 338 339 340 342 340 329 323 321 321 323 320 319 318 316 315 314 314 313 313 312 313 314 314 314 314 315 316 316 318 320 322 325 327 329 328
318 320 318 322 325 324 328 328 332 337 337 338 329 331 328 324 319 319 318 318 316 314 313 313 312 312 311 310 311 312 313 313 313 313 314 314 314 315 316 316 317 318 319 320
320 320 321 321 324 326 326 329 333 336 332 328 328 328 326 324 321 317 316 316 315 313 312 310 310 309 308 309 310 310 311 311 312 312 312 312 313 313 313 314 316 317 318 318
325 324 323 322 322 324 325 326 327 330 327 326 325 323 322 319 319 318 318 316 314 313 312 311 310 310 309 309 308 310 309 309 309 309 309 309 309 309 310 312 313 314 314 315
323 321 320 320 321 320 325 326 327 325 324 325 324 322 318 317 317 315 316 314 314 313 312 310 309 309 308 306 306 307 307 308 307 307 307 307 306 306 308 306 308 310 311 311
327 321 321 321 319 319 324 326 326 325 323 322 321 320 318 316 317 315 313 312 313 313 312 310 308 308 307 305 305 307 307 306 306 305 305 305 305 304 304 304 303 303 303 305
322 318 317 317 317 316 319 321 321 323 324 322 320 320 322 321 318 316 314 312 312 310 309 308 308 307 306 306 306 307 306 305 304 304 303 303 304 304 304 301 299 299 300 300
317 318 319 317 318 316 315 316 317 318 318 320 319 319 321 316 314 314 313 312 312 312 311 309 308 307 306 306 306 306 306 303 303 302 302 302 302 301 301 301 301 301 299 297
317 315 317 316 316 317 315 315 316 319 318 318 317 317 317 316 315 315 314 313 311 310 310 309 308 307 306 306 306 306 304 303 302 301 300 300 300 300 300 300 300 299 299 299
316 316 316 316 316 316 316 315 316 316 314 314 316 316 315 315 316 315 314 312 311 310 310 309 308 307 306 305 305 304 303 302 301 300 299 300 300 300 299 299 299 299 298 297
318 316 315 315 315 315 315 315 314 314 315 313 313 314 314 314 313 313 312 311 312 312 311 309 309 307 306 305 303 303 303 301 299 300 300 300 300 300 299 299 299 298 298 296
313 313 313 314 315 316 315 315 315 315 315 315 314 312 313 312 313 313 312 310 310 309 309 309 309 307 306 305 304 303 302 302 300 300 300 300 300 299 299 299 299 298 298 297
314 314 313 314 315 315 315 314 315 315 315 315 314 313 313 313 314 313 312 311 311 311 310 308 308 307 307 305 304 303 302 301 300 300 300 300 299 299 299 299 299 299 298 297
315 314 314 314 314 314 315 314 314 314 315 315 315 315 315 313 312 312 311 310 311 311 310 309 308 308 307 305 304 303 303 302 301 301 300 300 301 301 300 299 299 300 299 298
314 315 314 314 314 313 311 312 312 313 312 314 314 314 314 314 313 313 312 313 313 312 311 310 311 312 308 307 305 303 302 302 302 301 301 301 301 300 300 300 301 300 300 299
314 314 314 313 312 311 309 309 309 310 310 311 311 311 311 312 312 313 312 312 312 311 310 309 308 309 309 307 304 304 303 301 302 302 302 302 302 301 301 301 301 301 300 300
311 311 309 309 308 308 308 308 308 308 308 308 309 309 309 309 309 310 311 311 310 310 309 309 309 308 308 306 304 304 304 304 304 303 302 303 303 301 301 301 301 302 301 301
308 307 307 307 308 308 308 308 308 307 307 306 307 307 307 308 308 308 310 309 308 308 308 309 307 306 306 305 305 305 304 304 304 304 303 302 303 302 301 301 302 302 302 302
307 307 308 308 307 308 308 308 307 306 307 308 307 307 306 307 308 309 308 309 307 308 309 309 308 307 306 307 307 306 306 305 305 304 303 303 303 303 302 302 302 303 303 302
307 308 307 307 307 307 307 306 307 307 307 308 308 308 308 307 307 308 308 308 309 308 308 307 307 307 305 305 306 307 306 306 304 304 304 304 304 303 303 303 303 303 303 302
307 306 307 307 307 307 307 306 307 307 306 307 306 307 307 307 308 308 308 308 307 307 306 305 303 302 303 306 306 306 306 306 306 305 304 304 304 304 303 303 304 304 303 302
Wind_Speed
5 5 4 5 6 3 6 2 8 7 11 15 18 17 14 11 10 9 6 5 2 1 1 9 13 19 22 24 20 12 15 15 11 7 4 2 6 8 9 12 12 12 10 8
4 2 3 2 6 4 5 3 6 3 7 5 14 15 13 12 11 10 8 7 7 6 4 11 13 11 24 21 15 13 13 12 11 9 7 5 4 5 7 8 11 10 9 7
3 4 4 6 6 9 6 4 5 3 3 9 15 17 15 12 12 11 9 8 7 8 9 10 12 18 20 23 14 16 16 14 10 11 6 8 6 9 9 7 7 7 6 6
1 1 8 4 1 4 5 3 3 5 1 11 12 12 12 14 14 13 11 10 9 12 15 19 23 24 24 22 16 17 16 15 13 10 8 11 9 9 8 6 6 7 6 5
3 4 4 4 2 4 3 6 4 3 8 14 16 15 10 11 12 14 12 14 14 16 18 22 23 23 27 24 20 19 19 15 13 14 12 12 13 10 10 8 8 9 8 6
2 3 5 3 3 8 1 5 1 4 11 17 17 8 4 11 13 15 17 20 20 20 18 24 25 25 26 23 22 19 15 14 11 12 13 12 11 10 10 12 12 11 13 11
3 3 3 0 8 5 5 2 4 6 12 15 12 2 13 12 13 17 18 20 26 23 18 17 16 23 24 20 17 15 13 12 12 14 14 12 11 11 10 11 12 14 12 10
2 2 5 6 2 3 4 3 6 5 6 9 8 16 18 17 13 19 20 21 17 21 19 18 17 18 17 16 15 14 13 12 11 11 14 14 12 12 13 13 15 14 13 11
3 1 2 4 2 5 6 6 1 7 10 13 14 14 13 15 15 18 20 18 16 17 18 13 11 12 16 13 14 16 15 14 13 12 13 11 12 11 9 9 9 9 8 8
3 3 2 3 2 4 4 4 3 8 13 15 15 16 14 11 14 16 17 17 18 17 15 13 11 12 13 13 14 12 14 13 11 11 11 10 10 9 9 8 8 8 7 7
2 3 3 2 4 7 6 5 8 9 10 13 16 13 15 12 11 10 14 14 15 15 16 15 12 11 10 11 11 12 12 10 9 9 9 11 11 10 10 14 10 8 7 7
2 2 1 2 5 5 4 5 5 10 11 12 17 19 25 22 12 9 13 13 13 13 14 14 13 12 11 11 10 10 10 8 8 8 7 8 9 11 12 11 10 11 10 8
2 5 5 4 5 4 2 2 3 3 7 12 14 18 20 21 26 26 18 17 15 18 18 17 15 14 11 12 12 11 11 10 9 8 7 8 8 8 8 8 10 10 9 6
2 5 4 3 4 5 6 2 5 4 3 6 11 16 18 15 20 24 26 30 22 17 16 15 14 13 12 12 11 11 10 12 9 9 7 8 8 8 7 7 6 6 9 10
4 1 4 4 2 3 5 3 2 4 5 7 8 13 16 19 21 24 23 22 21 18 17 17 16 16 15 13 11 11 10 9 8 8 8 9 8 8 7 7 6 6 7 9
7 4 4 3 2 2 2 3 3 2 2 5 10 13 17 16 13 14 18 21 24 26 23 20 18 17 17 15 14 12 11 12 11 10 9 7 6 6 6 6 6 6 7 10
8 4 3 3 2 1 1 2 1 1 2 3 7 10 13 15 12 12 14 16 17 14 16 16 15 17 17 16 16 14 13 12 11 10 8 7 6 5 5 5 5 5 5 6
5 5 4 3 5 3 2 1 1 1 2 2 2 5 10 14 17 17 17 19 16 11 14 17 15 17 16 14 13 13 14 14 12 11 10 8 6 5 4 3 3 4 4 6
9 8 7 6 5 4 3 2 1 0 1 2 2 4 7 8 9 12 14 15 18 18 14 16 18 19 16 15 14 11 11 12 12 10 9 9 7 6 4 2 1 2 4 5
9 9 7 6 6 6 4 3 3 2 2 1 1 2 5 5 6 9 12 16 19 20 21 19 16 17 17 16 18 13 12 12 11 10 10 9 8 7 6 5 3 3 4 5
11 9 8 8 6 4 4 3 4 3 3 4 5 5 5 3 3 7 10 11 14 16 17 21 26 28 20 20 20 18 13 13 12 11 9 9 8 9 8 6 6 6 7 7
9 9 7 6 7 7 5 3 1 0 1 4 5 6 7 9 8 9 10 12 10 12 12 17 20 23 24 22 22 19 18 14 12 11 11 10 9 10 9 8 8 9 9 9
13 14 14 10 7 5 2 1 2 4 5 6 8 9 9 9 8 9 11 12 12 10 11 12 17 23 25 27 29 24 18 16 16 15 13 12 11 12 12 12 11 12 12 11
17 12 10 7 4 2 3 4 5 4 4 6 8 10 10 10 10 10 11 8 7 8 13 13 16 21 26 27 24 23 24 21 19 18 16 17 15 13 14 14 14 14 14 14
13 12 9 5 2 2 1 1 2 3 6 6 6 5 7 8 9 6 8 8 8 8 10 15 18 22 24 19 17 19 20 19 20 18 16 16 15 14 15 15 14 15 15 16
13 10 8 7 8 6 4 2 2 2 3 4 4 4 3 2 2 3 4 5 5 6 7 11 13 12 18 20 19 18 16 16 16 18 19 16 16 16 16 17 16 16 17 16
9 11 10 9 7 6 4 3 3 3 5 6 7 10 10 9 8 8 9 10 10 9 10 10 11 10 4 11 14 13 14 15 17 15 14 15 16 17 18 18 19 19 18 18
Wind_Direction
99 104 112 80 29 29 228 272 230 192 203 194 187 179 172 152 150 137 144 146 156 172 149 153 154 155 144 142 135 130 121 115 109 99 103 173 214 211 217 213 213 214 218 222
159 318 270 31 41 47 38 307 248 277 220 295 164 159 155 150 148 153 154 156 149 138 155 142 138 142 142 142 145 179 121 109 106 95 88 92 122 157 173 188 195 202 207 213
205 352 295 216 37 45 337 308 305 226 34 151 170 167 156 154 156 147 144 139 140 134 120 121 121 141 126 127 134 128 125 126 118 103 104 106 131 133 132 141 159 165 171 175
112 287 239 71 8 66 54 314 269 296 280 174 161 155 152 159 149 144 140 126 97 96 97 101 113 114 122 126 133 122 115 111 124 126 135 122 111 102 101 102 109 112 118 133
208 206 315 159 69 337 10 319 327 303 145 153 141 127 133 141 131 128 123 106 96 94 100 101 102 109 118 112 110 107 107 107 110 122 123 119 102 104 115 105 107 105 100 107
147 211 239 83 344 344 277 285 26 189 167 163 152 153 143 136 126 122 118 115 110 107 102 109 114 119 113 114 114 102 100 105 105 109 104 103 111 110 111 113 111 105 100 93
151 236 281 268 314 295 231 30 310 213 171 170 184 146 148 123 107 112 122 122 124 119 109 109 118 125 113 113 100 108 108 105 103 106 106 101 102 108 108 107 109 105 104 100
138 211 248 10 293 284 7 298 292 222 175 162 109 131 137 138 129 122 124 125 125 118 119 128 130 123 113 108 116 117 117 111 104 103 107 112 109 104 104 105 103 101 105 91
228 93 349 312 300 320 318 295 209 176 155 135 129 133 139 142 135 128 124 126 127 122 117 120 125 125 116 121 128 130 129 119 113 108 101 105 103 97 88 82 85 84 84 84
204 164 273 318 328 35 350 307 193 160 147 137 137 136 138 135 136 135 136 139 138 134 128 123 122 118 120 131 131 127 122 118 115 110 104 94 84 80 78 70 73 70 62 58
246 242 279 282 8 1 40 79 116 125 145 146 140 144 132 108 121 122 140 149 153 147 140 136 133 125 126 126 129 120 113 108 102 97 96 91 83 81 80 72 74 74 60 47
200 106 358 75 338 355 34 62 118 135 139 154 160 151 136 126 144 178 190 170 164 159 150 148 146 143 145 147 147 134 122 117 113 103 96 98 102 88 87 91 81 78 71 75
167 151 121 92 50 23 42 70 115 157 166 166 176 169 164 156 169 187 184 177 177 176 166 162 158 156 155 154 152 148 140 131 120 112 107 102 100 107 112 90 80 73 76 59
195 151 139 130 102 54 42 75 156 133 136 185 182 178 183 166 163 172 182 192 187 180 172 169 164 163 163 155 150 144 140 138 128 120 110 102 97 91 87 83 75 55 27 36
166 99 74 88 76 60 47 50 186 213 190 188 195 196 192 187 187 195 191 188 185 179 179 176 175 176 171 166 159 153 148 144 136 126 123 120 109 100 88 72 57 42 31 17
152 135 131 132 123 100 74 44 46 18 277 235 215 209 215 216 222 199 192 187 182 191 188 183 183 181 174 167 162 159 158 156 145 141 136 127 117 106 92 76 63 49 37 21
154 175 185 184 164 117 84 103 126 49 351 284 250 233 206 204 202 196 198 200 203 197 196 193 187 181 178 175 170 166 163 162 160 153 149 141 131 115 101 86 64 43 26 3
136 122 140 153 165 164 164 171 213 251 274 351 288 207 204 205 213 206 194 188 192 204 207 199 189 186 182 184 183 178 172 172 172 170 165 161 156 143 133 117 74 31 8 352
199 184 169 174 178 177 175 170 185 6 342 244 181 202 229 231 223 212 193 196 195 198 205 206 205 197 188 191 187 191 189 183 179 180 182 182 178 177 173 164 119 4 348 345
196 203 196 183 189 208 226 220 203 212 193 186 243 240 242 231 206 203 202 200 219 227 221 213 193 197 191 195 200 198 205 205 197 196 196 201 210 215 216 225 241 289 318 329
207 204 202 198 193 189 220 241 259 274 245 222 229 243 247 237 229 217 218 229 239 236 220 221 224 227 211 208 197 198 200 216 214 210 211 219 228 237 241 250 275 290 306 318
180 174 171 153 135 125 112 113 112 294 262 253 254 254 252 252 242 238 235 238 254 248 230 231 228 227 222 204 193 212 208 216 226 228 226 233 240 242 245 256 272 282 288 298
140 139 133 134 124 117 101 7 321 302 286 276 271 269 263 265 260 246 248 249 232 239 222 225 226 229 218 203 196 207 219 226 230 233 237 242 249 251 253 258 268 275 279 280
121 115 108 104 98 50 320 322 324 322 313 301 280 265 253 249 251 242 232 229 227 225 219 220 219 212 200 195 203 209 214 225 235 239 239 243 247 255 257 257 262 270 275 278
135 127 125 130 137 123 112 355 332 333 325 316 312 275 240 231 233 223 208 206 213 211 217 220 220 203 206 211 211 213 222 229 232 238 240 245 250 258 259 262 272 280 283 282
142 142 152 149 123 113 95 89 105 74 19 24 1 24 53 104 158 160 153 151 142 150 176 185 179 185 195 208 232 236 229 233 239 245 245 249 255 263 267 269 272 278 279 276
146 156 149 143 143 143 147 149 129 98 78 88 66 63 79 122 109 119 124 128 148 150 148 148 149 156 234 255 229 230 233 239 244 245 245 251 256 261 264 267 272 272 273 269